EW2724 Weather Reports


time (UTC)temp
C
wind
direction
speed
KPH
gust
KPH
rain 1hr
cm
rain 24hr
cm
rain mn
cm
humidity
%
barometer
mb
20260509013022 16 284 0.0 0.0 0.00 0.00 0.00 71 1015.2
20260509011518 16 284 0.0 0.0 0.00 0.00 0.00 70 1015.1
20260509010025 17 284 0.0 0.0 0.00 0.00 0.00 69 1014.9
20260509004530 17 284 0.0 0.0 0.00 0.00 0.00 68 1015.0
20260509003009 17 284 0.0 0.0 0.00 0.00 0.00 65 1014.8
20260509001516 18 284 0.0 0.0 0.00 0.00 0.00 63 1014.7
20260509000020 18 284 0.0 1.6 0.00 0.00 0.00 62 1014.6
20260508234505 18 262 0.0 0.0 0.00 0.00 0.00 61 1014.6
20260508233008 18 306 0.0 0.0 0.00 0.00 0.00 58 1014.6
20260508231512 19 271 0.0 1.6 0.00 0.00 0.00 57 1014.5
20260508230018 19 83 0.0 1.6 0.00 0.00 0.00 57 1014.6
20260508224506 19 271 0.0 4.8 0.00 0.00 0.00 55 1014.7
20260508223014 20 264 0.0 3.2 0.00 0.00 0.00 52 1014.6
20260508221517 20 288 0.0 1.6 0.00 0.00 0.00 52 1014.6
20260508220023 20 276 0.0 4.8 0.00 0.00 0.00 50 1014.4
20260508214519 20 270 1.6 4.8 0.00 0.00 0.00 50 1014.7
20260508213011 20 256 0.0 3.2 0.00 0.00 0.00 49 1014.6
20260508211508 20 308 0.0 0.0 0.00 0.00 0.00 50 1014.5
20260508210010 20 287 0.0 3.2 0.00 0.00 0.00 49 1014.6
20260508204518 20 287 1.6 4.8 0.00 0.00 0.00 48 1014.5
20260508203021 21 123 0.0 4.8 0.00 0.00 0.00 50 1014.9
20260508201507 20 129 0.0 6.4 0.00 0.00 0.00 49 1015.0
20260508200008 21 39 0.0 6.4 0.00 0.00 0.00 47 1015.3
20260508194514 21 262 3.2 6.4 0.00 0.00 0.00 46 1015.5
20260508193019 21 253 0.0 4.8 0.00 0.00 0.00 46 1015.7
20260508191526 21 360 0.0 6.4 0.00 0.00 0.00 49 1015.8
20260508190033 20 311 0.0 3.2 0.00 0.00 0.00 51 1016.2
20260508184515 20 89 0.0 4.8 0.00 0.00 0.00 51 1016.3
20260508183018 19 81 0.0 4.8 0.00 0.00 0.00 52 1016.5
20260508181540 20 302 3.2 6.4 0.00 0.00 0.00 48 1016.8
20260508180023 20 140 0.0 6.4 0.00 0.00 0.00 51 1016.9
20260508174529 20 305 0.0 8.0 0.00 0.00 0.00 51 1016.8
20260508173011 20 111 1.6 6.4 0.00 0.00 0.00 51 1017.0
20260508171516 18 117 0.0 9.7 0.00 0.00 0.00 52 1017.4
20260508170004 18 242 0.0 6.4 0.00 0.00 0.00 55 1017.5
20260508164505 18 122 1.6 4.8 0.00 0.00 0.00 51 1017.8
20260508163007 18 131 0.0 3.2 0.00 0.00 0.00 53 1018.1
20260508161514 18 120 0.0 3.2 0.00 0.00 0.00 54 1018.1
20260508160003 18 340 0.0 4.8 0.00 0.00 0.00 52 1018.4
20260508154503 17 113 0.0 4.8 0.00 0.00 0.00 53 1018.6
20260508153006 18 245 1.6 8.0 0.00 0.00 0.00 55 1018.7
20260508151511 17 89 0.0 3.2 0.00 0.00 0.00 59 1018.6
20260508150018 17 114 1.6 4.8 0.00 0.00 0.00 55 1018.6
20260508144521 17 95 0.0 6.4 0.00 0.00 0.00 56 1018.4
20260508143003 16 131 1.6 9.7 0.00 0.00 0.00 57 1018.5
20260508141511 16 138 1.6 4.8 0.00 0.00 0.00 58 1018.6
20260508140012 16 146 1.6 6.4 0.00 0.03 0.00 60 1018.9
20260508134519 16 79 1.6 3.2 0.00 0.10 0.00 64 1018.9
20260508133024 15 126 1.6 4.8 0.00 0.18 0.00 65 1018.8
20260508131508 15 69 1.6 4.8 0.00 0.23 0.00 68 1018.6
20260508130011 14 28 0.0 0.0 0.00 0.23 0.00 72 1018.4
20260508124517 13 24 0.0 0.0 0.00 0.25 0.00 76 1018.4
20260508123020 12 359 0.0 0.0 0.00 0.25 0.00 77 1018.4
20260508121524 12 350 0.0 3.2 0.00 0.28 0.00 78 1018.2
20260508120008 12 356 0.0 0.0 0.00 0.36 0.00 79 1018.0
20260508114514 11 13 0.0 0.0 0.00 0.46 0.00 80 1017.8
20260508113017 11 22 0.0 1.6 0.00 0.64 0.00 81 1017.5
20260508111524 11 22 0.0 0.0 0.00 0.76 0.00 82 1017.3
20260508110024 11 22 0.0 0.0 0.00 0.76 0.00 83 1016.9
20260508104521 10 24 0.0 0.0 0.00 0.79 0.00 84 1016.7
20260508101507 10 78 0.0 0.0 0.00 0.94 0.00 90 1016.2
20260508100006 10 78 0.0 0.0 0.00 0.97 0.00 89 1016.0
20260508094506 10 78 0.0 0.0 0.00 0.97 0.00 89 1015.8
20260508093012 10 78 0.0 0.0 0.00 0.97 0.00 89 1015.8
20260508091515 10 78 0.0 0.0 0.00 0.97 0.00 89 1015.6
20260508090024 10 78 0.0 0.0 0.00 1.02 0.00 89 1015.7
20260508084506 10 78 0.0 0.0 0.00 1.17 0.00 89 1015.5
20260508083009 10 78 0.0 0.0 0.00 1.32 0.00 88 1015.3
20260508081512 10 78 0.0 0.0 0.00 1.45 0.00 87 1015.3
20260508080018 11 78 0.0 0.0 0.00 1.47 0.00 86 1015.3
20260508074522 11 78 0.0 0.0 0.00 1.55 0.00 86 1015.3
20260508073007 11 78 0.0 0.0 0.00 1.65 0.00 85 1015.3
20260508071511 11 78 0.0 0.0 0.00 1.78 0.00 85 1015.3
20260508070016 11 78 0.0 0.0 0.00 1.88 0.00 84 1015.1
20260508064532 11 78 0.0 0.0 0.00 2.01 0.00 84 1015.1
20260508063025 11 78 0.0 0.0 0.00 2.13 0.00 84 1015.1
20260508061515 11 78 0.0 0.0 0.00 2.36 0.00 84 1015.1
20260508060016 12 78 0.0 0.0 0.00 2.57 0.00 83 1015.3
20260508054518 12 78 0.0 0.0 0.00 2.77 0.00 82 1015.4
20260508053027 12 78 0.0 0.0 0.00 2.97 0.00 81 1015.2
20260508051525 13 78 0.0 0.0 0.00 3.56 0.00 79 1015.2
20260508050018 13 78 0.0 0.0 0.00 4.11 0.00 77 1015.0
20260508044516 13 78 0.0 0.0 0.00 4.19 0.00 75 1014.8
20260508043020 14 78 0.0 0.0 0.00 4.24 0.00 73 1014.8
20260508041523 15 78 0.0 0.0 0.00 4.32 0.00 70 1014.6
20260508040035 15 78 0.0 0.0 0.00 4.32 0.00 67 1014.9
20260508034529 15 78 0.0 0.0 0.00 4.32 4.32 66 1014.7
20260508033021 16 78 0.0 0.0 0.00 4.32 4.32 67 1014.7
20260508031527 16 78 0.0 0.0 0.00 4.32 4.32 67 1014.6
20260508030026 16 79 0.0 0.0 0.00 4.32 4.32 66 1014.4
20260508024507 16 86 0.0 3.2 0.00 4.34 4.32 65 1014.3
20260508023024 17 326 0.0 3.2 0.00 4.37 4.32 63 1014.2
20260508021518 17 48 0.0 6.4 0.00 4.67 4.32 58 1013.8
20260508020004 17 1 1.6 9.7 0.00 4.72 4.32 57 1013.6
20260508014517 17 356 1.6 4.8 0.00 4.98 4.32 59 1013.3